ATLAS CENTAUR 2 R/B, 694

Orbit data source: Space-Track

ATLAS CENTAUR 2 R/B, 694 is space debris in LEO originally from a launch on Wed, 27 Nov 1963 UTC via an ATLAS CENTAUR launch vehicle from the Air Force Eastern Test Range (AFETR). Debris objects in space refer to the collection of defunct objects orbiting the Earth. Examples of debris include non-operational satellites, rocket bodies, and fragments generated from explosions, collisions, or faulty payload assembly.

Loading next visibility...
Identifier
694, 1963-047A
Orbit
LEO
Country
Flag of USUS
Related business
Manufacturer
GD/Convair
Mission
Spacecraft
Bus & Motor
AC R&D, Unknown motor
Mass
4,300 kg wet, 900 kg dry
Launch date (UTC)
1963-11-27 (63 years ago)
Launch vehicle
ATLAS CENTAUR
Launch site
Air Force Eastern Test Range (AFETR)
Object type
Payload
Rocket body
Debris
Shape & HBR
CYL, 0.8 m
Radar Cross Section
Large (>1 m²)

Expand to show TLE details & history
Last TLE update: 12 hours ago

TLE from 12 hours ago
0 ATLAS CENTAUR 2 R/B
1 00694U 63047A   26237.53866357  .00001636  00000-0  18801-3 0  9999
2 00694  30.3544 331.5205 0545319 129.1589 235.8767 14.12629355155514
Epoch: 2026-08-25T12:55Z
TLE epoch observation values (Epoch: 2026-08-25T12:55:40.532Z)
Latitude
-0.00001°
Longitude
163.79703°
Altitude
1,084.034 km
Speed
7.193 km/s
True Right ascension
22h 06m 04s
True Declination
0° 00' 00"
Sunlit
Object was in full shadow at epoch
Visualization orbit readout
Latitude
Unknown
Longitude
Unknown
Altitude
Unknown
Speed
Unknown
Apparent Right ascension
Unknown
Apparent Declination
Unknown
Sunlit
N/A
Visualization observer readout
Local Sidereal Time
15:52:58
Azimuth
Unknown
Elevation
Unknown
Doppler factor
Unknown
Orbital elements
Apogee altitude
1,248.561 km
Perigee altitude
459.778 km
Semi-major axis
7,232.307 km
Eccentricity
0.05453
Inclination
30.3544°
RAAN
331.5205°
Arg. of periapsis
129.1589°
True anomaly
230.90068°
Mean anomaly
235.8767°
Eccentric anomaly
233.36934°
Mean motion
3.52881 °/min
Orbital period
102.02 mins
BSTAR
0.00018801
Loading maneuver chart data...
Computing Atmospheric mass density...

Documentation

Showing up to 5 results
|